Change the Weather History Date:

Thursday, February 6, 2014

  Actual Average Record
Temperature  
Mean Temperature 22 °F -  
Max Temperature 27 °F - 69 °F (1998)
Min Temperature 19 °F - 19 °F (2014)
Degree Days  
Heating Degree Days 42    
Month to date heating degree days 188  
Since 1 July heating degree days 2964  
Cooling Degree Days 0    
Month to date cooling degree days 0  
Year to date cooling degree days 0  
Moisture  
Dew Point 14 °F    
Average Humidity 67    
Maximum Humidity 92    
Minimum Humidity 41    
Precipitation  
Precipitation 0.10 in - 0.99 in (2015)
Month to date precipitation 0.18  
Year to date precipitation 2.75  
Sea Level Pressure  
Sea Level Pressure 29.84 in    
Wind  
Wind Speed 14 mph (NNE)    
Max Wind Speed 24 mph    
Max Gust Speed 32 mph    
Visibility 4 miles    
Events Fog , Snow    
T = Trace of Precipitation, MM = Missing Value Source: NWS Daily Summary

Daily Weather History Graph

Daily Weather History Graph

Search for Another Location

Airport or City:

Trip Planner

Search our weather history database for the weather conditions in past years. The results will help you decide how hot, cold, wet, or windy it might be!

Date:

Astronomy

Feb. 06, 2014 Rise Set
Actual Time 7:25 AM PST 5:25 PM PST
Civil Twilight 6:54 AM PST 5:56 PM PST
Nautical Twilight 6:19 AM PST 6:31 PM PST
Astronomical Twilight 5:44 AM PST 7:06 PM PST
Moon 11:00 AM PST (2/6) 12:46 AM PST (2/6)
Length of Visible Light 11h 02m
Length of Day
10h 00m
Waxing Crescent, 50% of the Moon is Illuminated
Feb 6
Waxing Crescent
Feb 14
Full
Feb 22
Last Quarter
Mar 1
New
Mar 8
First Quarter

Hourly Weather History & Observations

Time (PST) Temp. Windchill Dew Point Humidity Pressure Visibility Wind Dir Wind Speed Gust Speed Precip Events Conditions
12:53 AM 21.9 °F 9.2 °F 1.9 °F 42% 30.19 in 10.0 mi NNE 13.8 mph 25.3 mph N/A   Clear
1:53 AM 21.9 °F 7.8 °F 3.0 °F 44% 30.16 in 10.0 mi NE 17.3 mph 29.9 mph N/A   Partly Cloudy
2:53 AM 21.9 °F 7.3 °F 1.9 °F 42% 30.14 in 10.0 mi NE 18.4 mph - N/A   Mostly Cloudy
3:53 AM 23.0 °F 8.0 °F 3.0 °F 42% 30.11 in 10.0 mi NE 20.7 mph 26.5 mph N/A   Overcast
4:53 AM 23.0 °F 9.2 °F 3.0 °F 42% 30.09 in 10.0 mi NE 17.3 mph - N/A   Overcast
5:53 AM 23.0 °F 10.1 °F 3.9 °F 44% 30.06 in 10.0 mi NE 15.0 mph 29.9 mph N/A   Overcast
6:53 AM 24.1 °F 9.8 °F 5.0 °F 44% 30.04 in 10.0 mi NE 19.6 mph 25.3 mph N/A   Overcast
7:53 AM 24.1 °F 10.1 °F 5.0 °F 44% 30.03 in 10.0 mi NE 18.4 mph 28.8 mph N/A   Overcast
8:53 AM 24.1 °F 9.4 °F 8.1 °F 51% 30.00 in 10.0 mi NE 20.7 mph 29.9 mph N/A   Overcast
9:53 AM 25.0 °F 10.9 °F 8.1 °F 49% 29.99 in 10.0 mi NNE 19.6 mph 25.3 mph N/A   Overcast
10:53 AM 26.1 °F 12.7 °F 8.1 °F 47% 29.96 in 10.0 mi NE 18.4 mph 21.9 mph N/A   Overcast
11:53 AM 26.1 °F 12.0 °F 10.9 °F 53% 29.92 in 10.0 mi NE 20.7 mph 28.8 mph N/A   Overcast
12:39 PM 26.1 °F 13.1 °F 12.9 °F 58% 29.87 in 4.0 mi NNE 17.3 mph 31.1 mph 0.00 in Snow Light Snow
12:49 PM 24.8 °F 11.1 °F 14.0 °F 64% 29.87 in 4.0 mi NNE 18.4 mph 26.5 mph 0.00 in Snow Light Snow
12:53 PM 25.0 °F 12.6 °F 14.0 °F 63% 29.87 in 5.0 mi NNE 15.0 mph 27.6 mph 0.00 in Snow Light Snow
1:53 PM 24.1 °F 11.5 °F 16.0 °F 71% 29.82 in 9.0 mi NNE 15.0 mph - 0.00 in   Overcast
2:53 PM 24.1 °F 11.5 °F 17.1 °F 75% 29.78 in 6.0 mi North 15.0 mph - 0.00 in Snow Light Snow
3:03 PM 23.0 °F 10.1 °F 17.1 °F 78% 29.77 in 1.8 mi NNE 15.0 mph - 0.00 in Snow Light Snow
3:18 PM 21.9 °F 9.2 °F 18.0 °F 85% 29.76 in 0.5 mi NNE 13.8 mph - 0.00 in Fog , Snow Snow
3:53 PM 21.0 °F 6.6 °F 19.0 °F 92% 29.76 in 0.8 mi North 17.3 mph - 0.01 in Snow Light Snow
4:05 PM 21.0 °F 8.1 °F 19.0 °F 92% 29.75 in 0.2 mi North 13.8 mph - 0.00 in Fog , Snow Heavy Snow
4:33 PM 19.9 °F 6.7 °F 18.0 °F 92% 29.74 in 0.5 mi North 13.8 mph - 0.02 in Fog , Snow Snow
4:42 PM 19.9 °F 6.7 °F 18.0 °F 92% 29.75 in 0.8 mi North 13.8 mph - 0.02 in Snow Light Snow
4:53 PM 19.9 °F 7.3 °F 18.0 °F 92% 29.77 in 1.0 mi North 12.7 mph - 0.02 in Snow Light Snow
5:07 PM 19.9 °F 7.9 °F 17.1 °F 89% 29.76 in 0.8 mi North 11.5 mph - 0.01 in Snow Light Snow
5:32 PM 19.9 °F 9.3 °F 17.1 °F 89% 29.76 in 1.2 mi NNE 9.2 mph - 0.01 in Snow Light Snow
5:48 PM 19.4 °F 8.6 °F 17.6 °F 93% 29.77 in 2.0 mi NNE 9.2 mph - 0.01 in Snow Light Snow
5:49 PM 19.9 °F 9.3 °F 17.1 °F 89% 29.78 in 2.0 mi NNE 9.2 mph - 0.01 in Snow Light Snow
6:03 PM 19.9 °F 8.6 °F 17.1 °F 89% 29.77 in 1.8 mi NE 10.4 mph - 0.00 in Snow Light Snow
6:28 PM 19.9 °F 9.3 °F 17.1 °F 89% 29.76 in 2.0 mi NE 9.2 mph - 0.00 in Snow Light Snow
6:36 PM 19.9 °F 9.3 °F 17.1 °F 89% 29.76 in 2.5 mi NE 9.2 mph - 0.00 in Snow Light Snow
6:45 PM 19.9 °F 10.1 °F 18.0 °F 92% 29.76 in 3.0 mi NE 8.1 mph - 0.00 in Snow Light Snow
6:53 PM 19.9 °F 9.3 °F 18.0 °F 92% 29.76 in 4.0 mi NE 9.2 mph - 0.00 in   Overcast
6:58 PM 19.9 °F 10.1 °F 18.0 °F 92% 29.76 in 2.5 mi NNE 8.1 mph - 0.00 in Snow Light Snow
7:07 PM 19.9 °F 11.1 °F 18.0 °F 92% 29.76 in 1.0 mi NNE 6.9 mph - 0.01 in Snow Light Snow
7:14 PM 19.9 °F 10.1 °F 18.0 °F 92% 29.75 in 0.5 mi NE 8.1 mph - 0.01 in Fog , Snow Snow
7:28 PM 19.9 °F 11.1 °F 18.0 °F 92% 29.75 in 1.0 mi NNE 6.9 mph - 0.02 in Snow Light Snow
7:53 PM 21.0 °F 13.4 °F 19.0 °F 92% 29.76 in 1.0 mi NNE 5.8 mph - 0.02 in Snow Light Snow
8:06 PM 21.0 °F 13.4 °F 19.0 °F 92% 29.75 in 0.5 mi North 5.8 mph - 0.02 in Fog , Snow Snow
8:29 PM 19.9 °F 11.1 °F 19.0 °F 96% 29.75 in 1.0 mi North 6.9 mph - 0.04 in Snow Light Snow
8:40 PM 19.9 °F 11.1 °F 19.0 °F 96% 29.75 in 2.5 mi North 6.9 mph - 0.04 in Snow Light Snow
8:53 PM 19.9 °F 8.6 °F 18.0 °F 92% 29.77 in 8.0 mi North 10.4 mph - 0.04 in   Overcast
9:33 PM 19.9 °F 10.1 °F 17.1 °F 89% 29.77 in 2.0 mi North 8.1 mph - 0.00 in Snow Light Snow
9:53 PM 19.9 °F 11.1 °F 17.1 °F 89% 29.78 in 2.5 mi North 6.9 mph - 0.00 in   Overcast
10:00 PM 19.9 °F 11.1 °F 17.1 °F 89% 29.78 in 3.0 mi NNW 6.9 mph - N/A   Overcast
10:15 PM 19.9 °F 11.1 °F 17.1 °F 89% 29.78 in 2.0 mi North 6.9 mph - 0.00 in Snow Light Snow
10:53 PM 19.0 °F 9.0 °F 17.1 °F 92% 29.81 in 3.0 mi North 8.1 mph - 0.00 in   Overcast
11:12 PM 19.0 °F 9.0 °F 17.1 °F 92% 29.80 in 2.5 mi North 8.1 mph - 0.00 in Snow Light Snow
11:25 PM 19.0 °F 9.0 °F 17.1 °F 92% 29.81 in 1.2 mi NNW 8.1 mph - 0.00 in Snow Light Snow
11:35 PM 19.0 °F 8.2 °F 16.0 °F 88% 29.82 in 3.0 mi North 9.2 mph - 0.00 in Snow Light Snow
11:50 PM 19.4 °F 8.6 °F 15.8 °F 86% 29.83 in 6.0 mi North 9.2 mph - 0.00 in   Overcast
11:53 PM 19.0 °F 8.2 °F 16.0 °F 88% 29.84 in 7.0 mi North 9.2 mph - 0.00 in   Overcast